[[{"header":{"parameterUnit":"m.s-1","parameterCategory":1,"la1":30.2991,"la2":30.254,"lo1":-89.0895,"lo2":-89.0444,"dy":0.0017,"dx":0.0017,"nx":28,"ny":28,"refTime":"2023-11-20T03:00:00:Z","depth":0,"parameterNumber":2,"parameterNumberName":"U-component_of_WINDS"},"data":[0,0,0,0,0,0,0,0,0,0,0,0,0,0,0,0,0,0,0,0,0,0,0,0,0,0,0,0,0,0,0,0,0,0,0,0,0,0,0,0,0,0,0,0,0,0,0,0,0,0,0,0,0,0,0,0,0,0,-2.693,-2.693,0,-2.6918,-2.6918,-2.6918,-2.6895,-2.6894,-2.6894,-2.6894,-2.6882,-2.6882,-2.6883,0,0,0,0,0,0,0,0,0,0,0,0,0,-2.6933,-2.6933,-2.693,-2.693,-2.693,-2.6919,-2.6918,-2.6918,-2.6895,-2.6894,-2.6894,-2.6893,-2.6882,-2.6882,-2.6883,0,0,0,0,0,0,0,0,0,0,0,0,0,-2.6928,-2.6933,-2.693,-2.6917,-2.6916,-2.6919,-2.6918,-2.6918,-2.6895,-2.6894,-2.6894,-2.6893,-2.6882,-2.6882,-2.6883,-2.6898,0,0,-2.6883,-2.6883,0,0,0,0,0,0,0,0,-2.6928,-2.6928,-2.6919,-2.6918,-2.6916,-2.6907,-2.6915,-2.6911,-2.6895,-2.6903,-2.6894,-2.6893,-2.6891,-2.6891,-2.689,-2.6897,-2.6897,-2.6883,-2.6883,-2.6883,-2.6883,0,0,0,0,0,0,0,-2.6928,-2.6928,-2.6926,-2.6919,-2.6917,-2.6912,-2.691,-2.6914,-2.6901,-2.6902,-2.6901,-2.6899,-2.689,-2.689,-2.689,-2.6896,-2.6883,-2.6883,-2.6883,-2.6884,-2.6914,-2.6915,0,0,0,0,0,0,-2.6931,-2.6928,-2.6926,-2.6925,-2.6921,-2.6912,-2.6911,-2.6911,-2.6901,-2.6899,-2.69,-2.6898,-2.689,-2.6889,-2.6889,-2.6905,-2.6883,-2.6884,-2.6884,-2.6914,-2.6915,-2.6915,0,0,0,0,0,0,-2.6931,-2.6931,-2.6926,-2.6926,-2.6925,-2.6913,-2.6914,-2.6911,-2.6911,-2.6899,-2.6897,-2.6902,-2.6889,-2.6889,-2.6895,-2.6904,-2.6884,-2.6884,-2.6913,-2.6914,-2.6915,-2.6937,0,0,0,0,0,0,-2.6931,-2.6931,-2.6936,-2.6927,-2.6925,-2.6933,-2.6914,-2.6911,-2.6911,-2.6909,-2.69,-2.6898,-2.6889,-2.6895,-2.6896,-2.6904,-2.6884,-2.6912,-2.6913,-2.6915,-2.6936,-2.6939,-2.6942,0,0,0,0,0,-2.6931,-2.6943,-2.6936,-2.6936,-2.6932,-2.6933,-2.6933,-2.6921,-2.6912,-2.6917,-2.691,-2.6899,-2.6904,-2.6896,-2.6896,-2.6905,-2.6911,-2.6913,-2.6915,-2.6934,-2.6938,-2.6942,0,0,0,0,0,0,-2.6954,-2.6942,-2.6934,-2.6943,-2.694,-2.6929,-2.6935,-2.6926,-2.6925,-2.6923,-2.6909,-2.6907,-2.6915,-2.6911,-2.6903,-2.6919,-2.6906,-2.6907,-2.6921,-2.6924,-2.6927,-2.6927,-2.6884,0,0,0,0,0,-2.696,-2.6962,-2.6952,-2.6961,-2.6959,-2.6948,-2.6948,-2.694,-2.6935,-2.6933,-2.6927,-2.6923,-2.6923,-2.6924,-2.6924,-2.6936,-2.6933,-2.6942,-2.6945,-2.6948,-2.6949,-2.6953,-2.6957,-2.6921,-2.6921,-2.6921,0,0,-2.6973,-2.6967,-2.6969,-2.6965,-2.6961,-2.6963,-2.6947,-2.695,-2.6951,-2.6934,-2.6939,-2.6934,-2.6929,-2.6938,-2.6942,-2.6935,-2.6958,-2.695,-2.6952,-2.6951,-2.6955,-2.6959,-2.6962,-2.6922,-2.6921,-2.6921,0,0,-2.6997,-2.6993,-2.6999,-2.6996,-2.699,-2.6982,-2.6984,-2.6975,-2.6971,-2.6977,-2.6963,-2.6965,-2.6967,-2.6963,-2.6962,-2.6985,-2.6974,-2.6986,-2.7001,-2.7006,-2.7009,-2.7011,-2.7018,-2.7021,-2.6987,-2.6987,-2.6987,0,-2.7013,-2.7016,-2.7004,-2.7008,-2.7007,-2.6991,-2.6998,-2.6995,-2.699,-2.6989,-2.6982,-2.6983,-2.6979,-2.6986,-2.6992,-2.6992,-2.6992,-2.6986,-2.7009,-2.7012,-2.7014,-2.702,-2.7023,-2.6989,-2.6989,-2.6988,-2.6988,0,-2.7036,-2.7038,-2.7044,-2.7039,-2.7038,-2.7044,-2.7033,-2.7034,-2.7026,-2.7019,-2.7025,-2.7019,-2.7017,-2.7019,-2.7011,-2.7025,-2.7021,-2.7012,-2.6998,-2.7019,-2.7024,-2.7027,-2.699,-2.699,-2.699,-2.6989,0,0,-2.7072,-2.7061,-2.7063,-2.706,-2.7053,-2.7054,-2.7059,-2.7057,-2.7058,-2.7055,-2.7058,-2.706,-2.7051,-2.705,-2.7042,-2.7047,-2.7064,-2.7037,-2.7036,-2.7041,-2.7077,-2.7083,-2.7086,-2.7058,-2.7058,-2.7058,-2.7077,0,-2.7093,-2.7099,-2.7089,-2.7098,-2.71,-2.7086,-2.709,-2.7086,-2.708,-2.708,-2.7074,-2.7075,-2.7065,-2.7063,-2.7068,-2.7061,-2.7071,-2.706,-2.7059,-2.7059,-2.7059,-2.7089,-2.7095,-2.7113,-2.708,-2.708,-2.708,0,-2.7117,-2.7115,-2.7124,-2.7116,-2.7116,-2.712,-2.7117,-2.7118,-2.7113,-2.7109,-2.7107,-2.7098,-2.7102,-2.709,-2.7095,-2.7088,-2.7088,-2.7085,-2.7085,-2.7083,-2.707,-2.7086,-2.7118,-2.712,-2.7084,-2.7084,-2.7083,0,-2.7141,-2.7141,-2.7145,-2.7144,-2.7135,-2.7138,-2.7134,-2.7129,-2.7128,-2.7126,-2.7125,-2.7124,-2.7123,-2.7123,-2.7113,-2.7106,-2.7119,-2.7107,-2.7115,-2.7115,-2.7116,-2.7116,-2.7147,-2.712,-2.712,-2.7119,-2.7119,0,-2.7164,-2.7169,-2.7156,-2.7159,-2.7165,-2.7154,-2.716,-2.7155,-2.7151,-2.7152,-2.7141,-2.7143,-2.7131,-2.7132,-2.7125,-2.713,-2.713,-2.7126,-2.7123,-2.7126,-2.7126,-2.7124,-2.7122,-2.712,-2.712,-2.712,-2.712,0,-2.719,-2.7181,-2.7185,-2.7177,-2.7175,-2.7179,-2.7172,-2.7174,-2.7168,-2.7171,-2.7171,-2.7161,-2.7161,-2.7153,-2.7151,-2.7147,-2.7154,-2.715,-2.7155,-2.7153,-2.7161,-2.716,-2.719,-2.7193,-2.7165,-2.7166,-2.7166,0,-2.7204,-2.7208,-2.72,-2.72,-2.7197,-2.7198,-2.7197,-2.7187,-2.7186,-2.7182,-2.7184,-2.7184,-2.7182,-2.7184,-2.7177,-2.7176,-2.7171,-2.7182,-2.717,-2.7172,-2.7169,-2.7168,-2.7168,-2.7183,-2.7184,-2.7184,-2.7184,0,-2.723,-2.7225,-2.7224,-2.7222,-2.7222,-2.722,-2.7217,-2.7218,-2.7207,-2.7207,-2.7207,-2.7206,-2.7205,-2.7204,-2.7201,-2.7198,-2.7189,-2.7188,-2.719,-2.7191,-2.7193,-2.719,-2.7159,-2.7187,-2.7187,-2.7187,-2.7186,-2.7186,-2.7249,-2.7252,-2.7246,-2.7246,-2.7242,-2.724,-2.7242,-2.7236,-2.7236,-2.7233,-2.7228,-2.7228,-2.7224,-2.722,-2.7217,-2.7218,-2.7212,-2.7215,-2.7215,-2.7216,-2.7216,-2.7195,-2.7218,-2.7218,-2.7218,-2.7217,-2.7217,0,-2.7273,-2.7269,-2.7268,-2.7264,-2.7264,-2.7257,-2.7253,-2.7253,-2.7254,-2.7251,-2.725,-2.725,-2.7249,-2.7242,-2.7241,-2.7243,-2.7238,-2.7242,-2.7241,-2.724,-2.7222,-2.722,-2.7246,-2.7246,-2.7246,-2.7246,-2.7246,-2.7246,-2.7285,-2.7288,-2.7283,-2.7285,-2.7281,-2.7282,-2.728,-2.7278,-2.7275,-2.7275,-2.7275,-2.727,-2.7266,-2.7264,-2.7263,-2.7261,-2.726,-2.7265,-2.7262,-2.7245,-2.7242,-2.7239,-2.7237,-2.7266,-2.7266,-2.728,-2.728,-2.728]},{"header":{"parameterUnit":"m.s-1","parameterCategory":1,"la1":30.2991,"la2":30.254,"lo1":-89.0895,"lo2":-89.0444,"dy":0.0017,"dx":0.0017,"nx":28,"ny":28,"refTime":"2023-11-20T03:00:00:Z","depth":0,"parameterNumber":3,"parameterNumberName":"V-component_of_WINDS"},"data":[0,0,0,0,0,0,0,0,0,0,0,0,0,0,0,0,0,0,0,0,0,0,0,0,0,0,0,0,0,0,0,0,0,0,0,0,0,0,0,0,0,0,0,0,0,0,0,0,0,0,0,0,0,0,0,0,0,0,2.3234,2.3235,0,2.3285,2.3286,2.3286,2.3221,2.3218,2.3216,2.3214,2.3259,2.3263,2.3266,0,0,0,0,0,0,0,0,0,0,0,0,0,2.3074,2.3077,2.3234,2.3235,2.3236,2.3285,2.3286,2.3286,2.3221,2.3218,2.3215,2.3212,2.3258,2.3262,2.3267,0,0,0,0,0,0,0,0,0,0,0,0,0,2.3136,2.3078,2.3234,2.3209,2.3207,2.3285,2.3286,2.3287,2.3222,2.3218,2.3214,2.3211,2.3257,2.3262,2.3267,2.337,0,0,2.3283,2.3285,0,0,0,0,0,0,0,0,2.3133,2.3142,2.3212,2.3211,2.3209,2.3243,2.3246,2.3314,2.3222,2.3216,2.3213,2.3209,2.3256,2.3261,2.3279,2.3372,2.3374,2.3283,2.3286,2.3289,2.329,0,0,0,0,0,0,0,2.3128,2.3139,2.3254,2.3213,2.3211,2.3193,2.3198,2.3259,2.3255,2.3216,2.3212,2.3219,2.3255,2.3274,2.3279,2.3375,2.3283,2.3288,2.3291,2.3293,2.3555,2.3559,0,0,0,0,0,0,2.3128,2.3136,2.3252,2.3256,2.3162,2.3199,2.3204,2.3236,2.3254,2.3254,2.3222,2.3216,2.3267,2.3273,2.3281,2.3403,2.3289,2.3293,2.3296,2.3552,2.3556,2.356,0,0,0,0,0,0,2.3125,2.3139,2.325,2.3195,2.3208,2.3205,2.3241,2.3238,2.3257,2.3259,2.3257,2.3242,2.3264,2.3273,2.3349,2.3403,2.3296,2.33,2.3547,2.3553,2.3558,2.3648,0,0,0,0,0,0,2.312,2.3138,2.3179,2.3196,2.3211,2.332,2.3244,2.3242,2.3267,2.3259,2.3278,2.3277,2.3262,2.3341,2.3354,2.3409,2.3304,2.3542,2.355,2.3557,2.364,2.3656,2.367,0,0,0,0,0,2.3115,2.32,2.3181,2.3195,2.3262,2.3323,2.3331,2.3314,2.3272,2.3312,2.3313,2.3276,2.3395,2.335,2.3363,2.342,2.3539,2.3548,2.3556,2.3633,2.3653,2.3669,0,0,0,0,0,0,2.3186,2.3202,2.3181,2.3275,2.3299,2.3312,2.3362,2.3335,2.337,2.3361,2.3336,2.3341,2.3422,2.3428,2.3377,2.3521,2.346,2.3472,2.3514,2.3533,2.3547,2.3544,2.3309,0,0,0,0,0,2.3214,2.3265,2.3274,2.3356,2.3369,2.3364,2.339,2.3375,2.3397,2.3406,2.3413,2.3434,2.3476,2.3505,2.3543,2.364,2.3643,2.3686,2.3701,2.3713,2.3724,2.3776,2.3795,2.3589,2.3589,2.3589,0,0,2.3269,2.3284,2.3317,2.3371,2.3388,2.3439,2.3373,2.3429,2.3467,2.3414,2.3487,2.3492,2.3514,2.3602,2.364,2.3609,2.3781,2.3724,2.3734,2.3738,2.3787,2.3806,2.3824,2.3595,2.3594,2.3593,0,0,2.3398,2.3414,2.3485,2.3504,2.353,2.3526,2.3543,2.3561,2.3564,2.3636,2.3598,2.3641,2.3714,2.3732,2.3751,2.3887,2.3855,2.39,2.3977,2.4029,2.4045,2.4059,2.4108,2.4126,2.391,2.391,2.3911,0,2.3463,2.3542,2.3524,2.3585,2.3609,2.3566,2.3637,2.3654,2.3692,2.3709,2.3674,2.3766,2.3778,2.3869,2.3902,2.3918,2.3936,2.3898,2.4044,2.4058,2.4071,2.4118,2.4136,2.3916,2.3915,2.3915,2.3914,0,2.3621,2.3675,2.3729,2.3769,2.3799,2.3864,2.3855,2.3887,2.387,2.3869,2.3943,2.3956,2.3997,2.4017,2.3999,2.4106,2.4086,2.4049,2.3987,2.4097,2.414,2.4157,2.3923,2.3922,2.392,2.3919,0,0,2.3795,2.3826,2.3846,2.3864,2.3891,2.3932,2.3994,2.4037,2.4065,2.4092,2.4143,2.4207,2.4173,2.4194,2.4177,2.4222,2.433,2.4179,2.4179,2.4207,2.4448,2.4477,2.4498,2.4309,2.4312,2.4315,2.4446,0,2.3924,2.4036,2.4022,2.4128,2.4178,2.4138,2.4192,2.4214,2.4215,2.4255,2.4255,2.4301,2.4252,2.4264,2.4307,2.4308,2.4378,2.4298,2.4355,2.4357,2.4352,2.452,2.455,2.4674,2.4463,2.4466,2.4468,0,2.409,2.4126,2.4238,2.4258,2.4278,2.4328,2.4366,2.4406,2.4429,2.4426,2.4451,2.4427,2.4488,2.4425,2.4508,2.4454,2.4476,2.448,2.4485,2.4489,2.442,2.453,2.4713,2.4732,2.4494,2.4492,2.449,0,2.4207,2.4283,2.436,2.4377,2.4402,2.4438,2.4449,2.4469,2.4495,2.4528,2.4545,2.4583,2.4604,2.4633,2.462,2.4575,2.4706,2.4641,2.4704,2.4705,2.4734,2.4732,2.4924,2.4747,2.4747,2.4747,2.4746,0,2.4353,2.4423,2.4414,2.4461,2.4538,2.452,2.4596,2.4602,2.462,2.4667,2.4633,2.4677,2.4656,2.4698,2.4688,2.4759,2.4768,2.4766,2.4763,2.477,2.477,2.4785,2.4776,2.4752,2.4751,2.475,2.4749,0,2.4498,2.4494,2.4575,2.4593,2.4599,2.4655,2.4669,2.4713,2.4711,2.477,2.4783,2.478,2.4828,2.4817,2.4869,2.4861,2.4951,2.4936,2.4944,2.4941,2.5005,2.4999,2.5212,2.5239,2.5045,2.5047,2.5049,0,2.4592,2.4645,2.4669,2.47,2.4715,2.4763,2.4791,2.4775,2.4805,2.4836,2.4875,2.4921,2.4956,2.5034,2.5035,2.5074,2.506,2.5132,2.5066,2.5072,2.5062,2.506,2.5065,2.5146,2.5148,2.515,2.5151,0,2.4759,2.4755,2.4798,2.484,2.4875,2.4907,2.4935,2.4961,2.4948,2.4983,2.5033,2.506,2.5114,2.5159,2.5196,2.5205,2.5176,2.5172,2.5189,2.5197,2.52,2.52,2.4981,2.5167,2.5166,2.5165,2.5164,2.5163,2.4881,2.4927,2.4952,2.5001,2.5021,2.5049,2.5091,2.5096,2.5138,2.5183,2.517,2.5226,2.5247,2.5294,2.5308,2.535,2.5323,2.5347,2.5353,2.536,2.5368,2.5193,2.5357,2.5356,2.5356,2.5355,2.5355,0,2.5048,2.5062,2.5107,2.515,2.5188,2.5159,2.5189,2.5222,2.5274,2.5297,2.5333,2.539,2.5434,2.5439,2.548,2.5513,2.5501,2.5524,2.5522,2.5525,2.539,2.5372,2.5534,2.5534,2.5534,2.5534,2.5534,2.5534,2.5139,2.5216,2.5215,2.5301,2.5313,2.5371,2.5391,2.5416,2.5434,2.55,2.5538,2.5541,2.5557,2.5599,2.5637,2.5637,2.5654,2.5683,2.5678,2.5552,2.5534,2.5517,2.55,2.5686,2.5687,2.5809,2.5811,2.5811]}]]